sat.trackr.live / text

‹ back to catalog

HJ-2E

NORAD 54035 · 2022-132A

PAYLOAD ACTIVE UNKNOWN

§ Identity

Operator
Country
PRC
Launch date
2022-10-12
Launch site
TAISC
Launch vehicle
Mass (kg)
RCS (m²)

External: N2YO · Heavens-Above · Gunter

§ Orbital elements

Epoch: 2026-09-20T23:52:21.767232Z

Period
94.73 min
Inclination
97.3852°
Eccentricity
0.0007018
Mean motion
15.20088839 rev/d
Perigee alt
500.7 km
Apogee alt
510.4 km
Semi-major
6,883.7 km
B*
1.9335e-4
RAAN
266.6518°
Arg perigee
54.8365°
Mean anomaly
305.3527°
Rev number
21,899

§ Raw data

HJ-2E1 54035U 22132A   26263.99469638  .00004109  00000+0  19335-3 0  99972 54035  97.3852 266.6518 0007018  54.8365 305.3527 15.20088839218992

JSON: /api/v1/satellites/54035 · /tle

For live sub-satellite position, see the globe view (requires WebGL).

§ Visibility from observer

Set your observer location to see the next 7 days of passes ≥ 10°. The values pass through the URL so the page stays shareable.

No JS? Fill the form by hand. The geolocation button needs JavaScript.

§ Radio — SatNOGS DB

ModeDescriptionDownlinkUplink
BPSK BPSK 2.203 GHz

1 transmitter · refreshed weekly from db.satnogs.org